#timestamp,LO_Frequency,Hit,StdDev 
1590120015.2,286046990.1,N
1590120035.9,286046990.6,N
1590120055.7,286046991.4,N
1590120075.6,286046991.7,N
1590120095.4,286046992.3,N
1590120115.2,286046992.0,N
1590120135.1,286046990.5,N
1590120136.0,286046990.5,N
1590120155.8,286046995.2,N
1590120175.7,286046997.5,N
1590120195.5,286046995.9,N
1590120215.3,286046994.9,N
1590120235.2,286046997.6,N
1590120255.0,286046997.6,N
1590120255.9,286046997.6,N
1590120275.8,286046996.0,N
1590120295.6,286046994.0,N
1590120315.4,286046994.8,N
1590120335.3,286046993.3,N
1590120355.1,286046997.8,N
1590120375.8,286046997.1,N
1590120395.7,286046999.5,N
1590120415.5,286047000.7,N
1590120435.4,286046998.1,N
1590120455.2,286046996.5,N
1590120475.0,286046998.8,N
1590120475.9,286046998.8,N
1590120495.8,286047001.2,N
1590120515.6,286047002.8,N
1590120535.5,286047003.5,N
1590120555.3,286047005.4,N
1590120575.1,286047005.5,N
1590120595.9,286047005.2,N
1590120615.7,286047005.0,N
1590120635.5,286047003.8,N
1590120655.4,286047001.5,N
1590120675.2,286047000.6,N
1590120695.1,286046994.9,N
1590120696.0,286046994.9,N
1590120715.8,286046994.6,N
1590120735.6,286046994.5,N
1590120755.5,286046990.8,N
1590120775.3,286046993.2,N
1590120795.1,286046990.5,N
1590120815.9,286046991.5,N
1590120835.7,286046991.1,N
1590120855.6,286046987.9,N
1590120875.4,286046984.8,Y
1590120895.2,286046984.7,P
1590120915.1,286046980.9,N
1590120916.0,286046980.9,N
1590120935.8,286046980.2,N
1590120955.7,286046983.4,N
1590120975.5,286046983.9,N
1590120995.3,286046986.6,N
1590121015.2,286046988.3,N
1590121035.0,286046986.4,N
1590121035.9,286046986.4,N
1590121055.7,286046989.2,N
1590121075.6,286046990.5,N
1590121095.4,286046993.1,N
1590121115.3,286046995.8,N
1590121135.1,286046995.2,N
1590121136.0,286046995.2,N
1590121155.8,286046994.0,N
1590121175.7,286046997.9,N
1590121195.5,286047000.9,N
1590121215.3,286046998.1,N
1590121235.2,286047001.2,N
1590121255.0,286047000.6,N
1590121255.9,286047000.6,N
1590121275.8,286046998.8,N
1590121295.6,286046999.1,N
1590121315.4,286047000.3,N
1590121335.3,286047002.5,N
1590121355.1,286047002.1,N
1590121375.8,286047001.9,N
1590121395.7,286047004.1,N
1590121415.5,286047002.6,N
1590121435.4,286047001.4,N
1590121455.2,286047001.7,N
1590121475.0,286047001.3,N
1590121475.9,286047001.3,N
1590121495.8,286047003.8,N
1590121515.6,286047001.4,N
1590121535.4,286047003.7,N
1590121555.3,286047003.0,N
1590121575.1,286047002.1,N
1590121595.9,286047004.0,N
1590121615.7,286047005.4,N
1590121635.5,286047004.6,N
1590121655.4,286047005.0,N
1590121675.2,286047004.6,N
1590121695.1,286047007.6,N
1590121696.0,286047007.6,N
1590121715.8,286047007.8,Y
1590121735.6,286047008.0,P
1590121755.5,286047009.7,P
1590121775.3,286047012.0,P
1590121795.2,286047011.5,Y
1590121815.9,286047007.5,P
1590121835.7,286047001.8,P
1590121855.6,286047007.0,N
1590121875.4,286047008.8,Y
1590121895.2,286047003.8,P
1590121915.1,286047003.1,N
1590121916.0,286047003.1,N
1590121935.8,286047008.7,Y
1590121955.7,286047004.7,P
1590121975.5,286047007.6,P
1590121995.3,286047008.5,P
1590122015.2,286047010.5,Y
1590122035.0,286047001.6,P
1590122035.9,286047001.6,N
1590122055.8,286047001.7,N
1590122075.6,286046999.8,N
1590122095.4,286047000.5,N
1590122115.3,286047002.5,N
1590122135.1,286047003.4,N
1590122155.8,286047009.1,Y
1590122175.7,286047004.6,P
1590122195.5,286047007.9,P
1590122215.4,286047011.0,P
1590122235.2,286047018.0,Y
1590122255.0,286047015.1,P
1590122255.9,286047015.1,P
1590122275.8,286047011.8,N
1590122295.6,286047011.2,Y
1590122315.5,286047002.5,P
1590122335.3,286047002.5,N
1590122355.1,286046999.4,N
1590122375.9,286046999.5,N
1590122395.7,286046994.5,N
1590122415.5,286046991.7,N
1590122435.4,286046992.7,N
1590122455.2,286046991.8,N
1590122475.1,286046991.7,N
1590122476.0,286046991.7,N
1590122495.8,286046993.2,N
1590122515.6,286046992.5,N
1590122535.5,286046991.0,N
1590122555.3,286046988.7,N
1590122575.1,286046991.4,N
1590122595.9,286046988.6,N
1590122615.7,286046987.7,N
1590122635.6,286046984.7,N
1590122655.4,286046981.3,N
1590122675.2,286046978.8,Y
1590122695.1,286046984.8,P
1590122696.0,286046984.8,P
1590122715.8,286046987.6,P
1590122735.7,286046988.0,Y
1590122755.5,286046997.4,P
1590122775.3,286046997.6,N
1590122795.2,286046994.0,N
1590122815.0,286046994.7,N
1590122815.9,286046994.7,N
1590122835.8,286046993.1,N
1590122855.6,286046993.2,N
1590122875.4,286046990.8,Y
1590122895.3,286046996.0,P
1590122915.1,286046992.5,P
1590122935.9,286046993.2,P
1590122955.7,286046987.9,Y
1590122975.5,286046989.2,P
1590122995.4,286046989.4,P
1590123015.2,286046988.3,P
1590123035.0,286046988.7,Y
1590123036.0,286046988.7,P
1590123055.8,286046996.7,P
1590123075.6,286047000.9,N
1590123095.5,286047001.0,N
1590123115.3,286046998.4,N
1590123135.1,286046991.1,N
1590123155.9,286046986.6,N
1590123175.7,286046980.7,Y
1590123195.6,286046988.9,P
1590123215.4,286046988.9,P
1590123235.2,286046991.4,P
1590123255.1,286046989.0,Y
1590123256.0,286046989.0,P
1590123275.8,286046999.3,N
1590123295.6,286046996.7,N
1590123315.5,286046996.8,N
1590123335.3,286046997.2,N
1590123355.2,286046995.9,N
1590123375.9,286046995.5,N
1590123395.7,286046998.0,N
1590123415.6,286046996.3,N
1590123435.4,286046994.9,N
1590123455.3,286046996.1,N
1590123475.1,286046995.1,N
1590123476.0,286046995.1,N
1590123495.8,286046998.7,N
1590123515.7,286046996.6,N
1590123535.5,286046997.4,N
1590123555.3,286046993.5,N
1590123575.2,286046992.3,Y
1590123595.0,286046996.1,P
1590123595.9,286046996.1,P
